TimeCET,TemperatureF,Dew PointF,Humidity,Sea Level PressureIn,VisibilityMPH,Wind Direction,Wind SpeedMPH,Gust SpeedMPH,PrecipitationIn,Events,Conditions,WindDirDegrees,DateUTC
12:20 AM,39.2,37.4,93,30.04,6.2,ESE,11.5,-,N/A,,Overcast,110,2012-11-24 23:20:00
12:50 AM,39.2,39.2,100,30.01,6.2,East,10.4,-,N/A,,Mostly Cloudy,100,2012-11-24 23:50:00
1:20 AM,41.0,39.2,93,29.98,6.2,East,13.8,-,N/A,,Mostly Cloudy,100,2012-11-25 00:20:00
1:50 AM,41.0,39.2,93,29.95,6.2,ESE,16.1,-,N/A,,Mostly Cloudy,120,2012-11-25 00:50:00
2:20 AM,41.0,39.2,93,29.95,6.2,ESE,15.0,-,N/A,,Mostly Cloudy,120,2012-11-25 01:20:00
2:50 AM,41.0,39.2,93,29.92,6.2,ESE,17.3,-,N/A,,Mostly Cloudy,120,2012-11-25 01:50:00
3:20 AM,39.2,39.2,100,29.92,6.2,ESE,16.1,-,N/A,,Mostly Cloudy,110,2012-11-25 02:20:00
3:50 AM,39.2,39.2,100,29.89,6.2,ESE,17.3,29.9,N/A,,Mostly Cloudy,120,2012-11-25 02:50:00
4:20 AM,39.2,39.2,100,29.86,6.2,ESE,18.4,-,N/A,,Mostly Cloudy,110,2012-11-25 03:20:00
4:50 AM,41.0,39.2,93,29.83,6.2,ESE,19.6,31.1,N/A,,Mostly Cloudy,110,2012-11-25 03:50:00
5:20 AM,41.0,41.0,100,29.83,6.2,ESE,18.4,-,N/A,Rain,Light Rain,110,2012-11-25 04:20:00
5:50 AM,41.0,41.0,100,29.80,6.2,ESE,20.7,-,N/A,Rain,Light Rain,110,2012-11-25 04:50:00
6:20 AM,41.0,41.0,100,29.77,6.2,ESE,20.7,33.4,N/A,Rain,Light Rain,110,2012-11-25 05:20:00
6:50 AM,42.8,41.0,93,29.74,5.0,ESE,19.6,31.1,N/A,Rain,Light Rain,110,2012-11-25 05:50:00
7:20 AM,42.8,42.8,100,29.71,5.0,ESE,23.0,35.7,N/A,Rain,Light Rain,110,2012-11-25 06:20:00
7:50 AM,42.8,42.8,100,29.68,5.0,ESE,23.0,-,N/A,Rain,Light Rain,110,2012-11-25 06:50:00
8:20 AM,42.8,42.8,100,29.68,5.0,ESE,23.0,36.8,N/A,Rain,Light Rain Showers,110,2012-11-25 07:20:00
8:50 AM,42.8,42.8,100,29.65,3.1,ESE,21.9,33.4,N/A,Rain,Light Rain Showers,120,2012-11-25 07:50:00
9:20 AM,42.8,42.8,100,29.65,1.6,ESE,23.0,-,N/A,Rain,Light Rain,120,2012-11-25 08:20:00
9:50 AM,42.8,42.8,100,29.62,1.9,ESE,19.6,-,N/A,Rain,Light Rain,120,2012-11-25 08:50:00
10:20 AM,42.8,42.8,100,29.59,1.2,ESE,20.7,34.5,N/A,Rain,Light Rain,120,2012-11-25 09:20:00
10:51 AM,42.8,42.8,100,29.59,1.2,ESE,17.3,-,N/A,Rain,Light Rain Showers,120,2012-11-25 09:51:00
11:20 AM,42.8,42.8,100,29.56,1.2,SE,15.0,-,N/A,Rain,Light Rain Showers,130,2012-11-25 10:20:00
11:50 AM,44.6,44.6,100,29.56,1.6,SE,13.8,-,N/A,Rain,Light Rain Showers,130,2012-11-25 10:50:00
12:20 PM,44.6,44.6,100,29.53,3.7,SE,15.0,-,N/A,Rain,Light Rain,140,2012-11-25 11:20:00
12:50 PM,46.4,46.4,100,29.53,5.0,SSE,11.5,-,N/A,Rain,Light Rain,160,2012-11-25 11:50:00
1:20 PM,46.4,46.4,100,29.53,5.0,SSE,11.5,-,N/A,Rain,Light Rain,160,2012-11-25 12:20:00
1:50 PM,48.2,46.4,93,29.53,3.7,South,16.1,-,N/A,Rain,Light Rain,180,2012-11-25 12:50:00
2:20 PM,48.2,46.4,93,29.53,6.2,South,16.1,27.6,N/A,Rain,Light Rain Showers,190,2012-11-25 13:20:00
2:50 PM,48.2,46.4,93,29.53,5.0,SSW,17.3,-,N/A,Rain,Light Rain Showers,200,2012-11-25 13:50:00
3:20 PM,48.2,44.6,87,29.50,5.0,SSW,19.6,-,N/A,Rain,Light Rain Showers,200,2012-11-25 14:20:00
3:50 PM,46.4,42.8,87,29.53,5.0,SSW,24.2,38.0,N/A,Rain,Light Rain Showers,210,2012-11-25 14:50:00
4:20 PM,44.6,42.8,93,29.53,5.0,SSW,24.2,35.7,N/A,Rain,Light Rain,200,2012-11-25 15:20:00
4:50 PM,44.6,42.8,93,29.50,5.0,SSW,21.9,34.5,N/A,Rain,Light Rain,200,2012-11-25 15:50:00
5:20 PM,44.6,42.8,93,29.50,5.0,South,21.9,34.5,N/A,Rain,Light Rain,190,2012-11-25 16:20:00
5:50 PM,44.6,42.8,93,29.47,3.7,South,21.9,33.4,N/A,Rain,Light Rain,180,2012-11-25 16:50:00
6:20 PM,44.6,42.8,93,29.47,5.0,South,21.9,35.7,N/A,Rain,Light Rain,190,2012-11-25 17:20:00
6:50 PM,44.6,42.8,93,29.47,5.0,SSW,23.0,36.8,N/A,Rain,Light Rain,200,2012-11-25 17:50:00
7:20 PM,44.6,42.8,93,29.44,5.0,SSW,29.9,43.7,N/A,Rain,Light Rain,200,2012-11-25 18:20:00
7:50 PM,44.6,42.8,93,29.44,5.0,SSW,29.9,51.8,N/A,Rain,Light Rain,200,2012-11-25 18:50:00
8:20 PM,44.6,44.6,100,29.44,2.5,SSW,28.8,43.7,N/A,Rain,Rain,210,2012-11-25 19:20:00
8:50 PM,44.6,44.6,100,29.44,3.1,SSW,31.1,49.5,N/A,Rain,Light Rain,210,2012-11-25 19:50:00
9:20 PM,44.6,44.6,100,29.44,3.1,SW,32.2,46.0,N/A,Rain,Light Rain,220,2012-11-25 20:20:00
9:50 PM,44.6,44.6,100,29.44,2.5,SW,32.2,47.2,N/A,Rain,Light Rain,220,2012-11-25 20:50:00
10:20 PM,46.4,44.6,93,29.44,2.5,SW,29.9,46.0,N/A,Rain,Light Rain,220,2012-11-25 21:20:00
10:50 PM,46.4,44.6,93,29.44,3.1,SW,32.2,46.0,N/A,Rain,Light Rain,220,2012-11-25 21:50:00
11:20 PM,46.4,44.6,93,29.47,3.7,SW,34.5,55.2,N/A,Rain,Light Rain,220,2012-11-25 22:20:00
11:50 PM,46.4,44.6,93,29.47,3.7,SW,32.2,46.0,N/A,Rain,Light Rain,220,2012-11-25 22:50:00